Home   Weather   Sheboygan   Past weeks

Flag for USA Past Weather in Sheboygan, Wisconsin, USA — Yesterday and Last 2 Weeks

Now
31 °F

Light snow. Ice fog.


Feels Like: 27 °F
Forecast: 28 / 35 °F
Wind: 3 mph from South

Location: Sheboygan County Memorial Airport

Current Time: Dec 4, 2016 at 12:42:11 pm

Latest Report: Dec 4, 2016 at 12:01 pm


Visibility: 1 mi

Pressure: 30.02 "Hg

Humidity: 92%

Dew Point: 29 °F

Location of SheboyganLocation

Past Weather in Sheboygan — Graph

°F

Sheboygan Temperature Yesterday

Maximum temperature yesterday: 32 °F (at 12:53 am)
Minimum temperature yesterday: 29 °F (at 10:53 pm)
Average temperature yesterday: 31 °F

High & Low Weather Summary for the Past Weeks

 TemperatureHumidityPressure
High50 °F (Nov 29, 12:53 pm)100% (Nov 27, 1:53 am)30.37 "Hg (Nov 27, 1:53 am)
Low20 °F (Nov 21, 11:53 pm)42% (Nov 21, 2:53 pm)29.10 "Hg (Nov 28, 11:53 pm)
Average35 °F79%30.02 "Hg
* Reported Nov 19 10:53 am — Dec 4 10:53 am, Sheboygan, Weather by CustomWeather, © 2016

Note: Actual official high and low records may vary slightly from our data, if they occured in-between our weather recording intervals... More about our weather records

Advertising

Sheboygan Weather History for the Previous 24 Hours

Scroll right to see more
 ConditionsComfort  
Time TempWeatherWind HumidityBarometerVisibility
10:53 am
Sun, Dec 4
31 °FLight snow. Ice fog.7 mph92%30.09 "Hg1 mi
9:58 am32 °FLight snow. Mostly cloudy.6 mph82%30.10 "Hg2 mi
9:53 am32 °FLight snow. Mostly cloudy.7 mph82%30.13 "Hg3 mi
8:53 am31 °FMore clouds than sun.No wind85%30.15 "Hg9 mi
7:53 am30 °FLight snow. Ice fog.3 mph85%30.18 "Hg2 mi
6:53 am30 °FMostly cloudy.5 mph82%30.19 "Hg9 mi
5:53 am30 °FMostly cloudy.No wind82%30.20 "Hg10 mi
4:53 am29 °FMostly cloudy.No wind85%30.21 "Hg10 mi
3:53 am29 °FOvercast.No wind85%30.22 "Hg10 mi
2:53 am28 °FMostly cloudy.No wind89%30.26 "Hg10 mi
1:53 am29 °FPassing clouds.No wind82%30.26 "Hg10 mi
12:53 am29 °FPassing clouds.No wind82%30.27 "Hg10 mi
11:53 pm
Sat, Dec 3
30 °FPassing clouds.No wind79%30.28 "Hg10 mi
10:53 pm29 °FOvercast.No wind75%30.28 "Hg10 mi
9:53 pm30 °FOvercast.3 mph72%30.29 "Hg10 mi
8:53 pm30 °FOvercast.No wind72%30.30 "Hg10 mi
7:53 pm31 °FOvercast.No wind67%30.30 "Hg10 mi
6:53 pm30 °FOvercast.3 mph72%30.31 "Hg10 mi
5:53 pm31 °FOvercast.5 mph69%30.32 "Hg10 mi
4:53 pm31 °FOvercast.3 mph69%30.32 "Hg10 mi
3:53 pm32 °FOvercast.3 mph66%30.33 "Hg10 mi
2:53 pm32 °FOvercast.6 mph69%30.32 "Hg10 mi
1:53 pm32 °FOvercast.5 mph66%30.32 "Hg10 mi
12:53 pm32 °FOvercast.6 mph66%30.32 "Hg10 mi
Weather by CustomWeather, © 2016

See weather overviewHow to use our weather pages